[[{"header":{"parameterUnit":"m.s-1","parameterCategory":1,"la1":30.2991,"la2":30.254,"lo1":-89.0895,"lo2":-89.0444,"dy":0.0017,"dx":0.0017,"nx":28,"ny":28,"refTime":"2024-03-16T09:00:00:Z","depth":0,"parameterNumber":2,"parameterNumberName":"U-component_of_WINDS"},"data":[0,0,0,0,0,0,0,0,0,0,0,0,0,0,0,0,0,0,0,0,0,0,0,0,0,0,0,0,0,0,0,0,0,0,0,0,0,0,0,0,0,0,0,0,0,0,0,0,0,0,0,0,0,0,0,0,0,0,0.1458,0.1459,0,0.1558,0.1559,0.156,0.1593,0.1593,0.1592,0.1592,0.1695,0.1698,0.1701,0,0,0,0,0,0,0,0,0,0,0,0,0,0.1296,0.1299,0.1458,0.1459,0.1461,0.1558,0.1559,0.1561,0.1593,0.1593,0.1592,0.1592,0.1694,0.1698,0.1702,0,0,0,0,0,0,0,0,0,0,0,0,0,0.1378,0.13,0.1458,0.1488,0.1492,0.1558,0.1559,0.1561,0.1593,0.1593,0.1592,0.1591,0.1693,0.1697,0.1702,0.1745,0,0,0.1717,0.1719,0,0,0,0,0,0,0,0,0.1374,0.1384,0.1483,0.1487,0.1491,0.1562,0.154,0.1623,0.1593,0.1555,0.1592,0.1591,0.1652,0.166,0.168,0.175,0.1754,0.1717,0.172,0.1722,0.1723,0,0,0,0,0,0,0,0.1368,0.138,0.1498,0.1484,0.1489,0.1498,0.1508,0.1556,0.1606,0.1558,0.1561,0.1572,0.1654,0.1675,0.1683,0.1755,0.1717,0.1721,0.1724,0.1726,0.1866,0.1866,0,0,0,0,0,0,0.1357,0.1375,0.1495,0.1501,0.1429,0.1501,0.1513,0.154,0.1605,0.1615,0.1573,0.1573,0.1667,0.1677,0.1686,0.1741,0.1722,0.1726,0.1729,0.1865,0.1866,0.1867,0,0,0,0,0,0,0.1353,0.1367,0.1491,0.1439,0.1455,0.1504,0.1534,0.1542,0.1564,0.1616,0.1625,0.1586,0.1667,0.168,0.173,0.1745,0.1728,0.1733,0.1864,0.1865,0.1866,0.185,0,0,0,0,0,0,0.1348,0.1366,0.1382,0.1439,0.1458,0.1532,0.1535,0.1545,0.1572,0.1574,0.1631,0.164,0.1668,0.1723,0.1735,0.1751,0.1736,0.1863,0.1864,0.1866,0.185,0.1851,0.1852,0,0,0,0,0,0.1343,0.1374,0.1383,0.1397,0.1479,0.1533,0.1544,0.1576,0.1573,0.159,0.1624,0.1638,0.1741,0.1728,0.1741,0.176,0.1862,0.1864,0.1866,0.1849,0.1851,0.1852,0,0,0,0,0,0,0.1318,0.1382,0.1393,0.1443,0.1482,0.1538,0.1561,0.1576,0.1617,0.1617,0.1655,0.1667,0.1715,0.1742,0.1726,0.1804,0.1802,0.1807,0.1785,0.1787,0.1788,0.1781,0.174,0,0,0,0,0,0.1319,0.1357,0.141,0.145,0.1469,0.1511,0.1536,0.1557,0.1599,0.1616,0.1653,0.1694,0.1736,0.1763,0.1804,0.1854,0.1867,0.1873,0.1874,0.1875,0.1879,0.1907,0.1911,0.1873,0.1873,0.1873,0,0,0.132,0.1359,0.1381,0.1446,0.1479,0.1518,0.1525,0.1566,0.1596,0.1623,0.1673,0.1701,0.1749,0.1799,0.1823,0.1824,0.1892,0.1877,0.1877,0.1881,0.191,0.1913,0.1916,0.1874,0.1874,0.1874,0,0,0.1343,0.1376,0.1413,0.1445,0.1495,0.1523,0.1532,0.1586,0.1606,0.1656,0.1678,0.1713,0.1784,0.1818,0.1844,0.1879,0.1893,0.1891,0.1897,0.1925,0.1928,0.1931,0.1944,0.1948,0.1895,0.1895,0.1895,0,0.1338,0.1398,0.143,0.147,0.1498,0.1523,0.1561,0.1591,0.1652,0.1671,0.167,0.176,0.1794,0.1853,0.1861,0.1881,0.1893,0.1885,0.1925,0.1928,0.1931,0.1944,0.1949,0.1894,0.1894,0.1894,0.1895,0,0.139,0.1431,0.1455,0.1512,0.1543,0.1581,0.162,0.1647,0.1665,0.1693,0.1744,0.1786,0.1836,0.1852,0.187,0.1913,0.1912,0.1917,0.1916,0.1934,0.1946,0.1951,0.1894,0.1894,0.1894,0.1894,0,0,0.1401,0.1476,0.1484,0.151,0.1567,0.1599,0.1639,0.1688,0.1711,0.1751,0.1786,0.1845,0.1851,0.1881,0.1903,0.1927,0.1952,0.193,0.1931,0.1933,0.2003,0.1999,0.2004,0.1962,0.1963,0.1964,0.1999,0,0.1431,0.1503,0.1533,0.1591,0.163,0.1655,0.1689,0.1728,0.1755,0.1792,0.1822,0.1864,0.1868,0.1886,0.1911,0.1944,0.1967,0.1942,0.1995,0.1997,0.1983,0.2011,0.2007,0.2038,0.2005,0.2005,0.2006,0,0.1477,0.1518,0.1579,0.1631,0.1648,0.1679,0.1726,0.1761,0.1805,0.1823,0.1856,0.1877,0.192,0.1915,0.1975,0.1957,0.1981,0.2,0.2002,0.2009,0.2003,0.2019,0.2049,0.2054,0.2014,0.2013,0.2013,0,0.1479,0.155,0.1596,0.1618,0.1679,0.17,0.1727,0.177,0.1798,0.1839,0.1858,0.1903,0.1929,0.1964,0.1996,0.199,0.2054,0.2051,0.207,0.207,0.2083,0.2082,0.2118,0.2097,0.2097,0.2097,0.2097,0,0.1511,0.1548,0.1598,0.1626,0.1668,0.1703,0.1744,0.1772,0.181,0.1845,0.1869,0.1901,0.1942,0.198,0.2005,0.2051,0.2062,0.2079,0.2085,0.2077,0.2075,0.2094,0.2092,0.2098,0.2098,0.2098,0.2097,0,0.1521,0.1556,0.1608,0.1662,0.1676,0.1705,0.1751,0.178,0.1808,0.1852,0.1864,0.1908,0.1954,0.1989,0.2048,0.2066,0.2114,0.2121,0.2099,0.2103,0.212,0.2118,0.217,0.2179,0.2151,0.2151,0.2151,0,0.1539,0.1568,0.1625,0.1649,0.1676,0.1715,0.1744,0.1778,0.1807,0.1859,0.1882,0.1928,0.1968,0.2039,0.2077,0.2122,0.2131,0.2146,0.2138,0.2129,0.2132,0.213,0.2133,0.2147,0.2147,0.2147,0.2147,0,0.1567,0.1583,0.1623,0.1668,0.1701,0.1739,0.1777,0.1796,0.1838,0.1868,0.1915,0.1945,0.2005,0.2052,0.2101,0.2129,0.2145,0.2149,0.2156,0.2148,0.2135,0.2143,0.2103,0.2148,0.2148,0.2148,0.2148,0.2148,0.1583,0.161,0.1654,0.1697,0.1729,0.1765,0.1794,0.1826,0.1865,0.1917,0.1935,0.1983,0.2026,0.2094,0.2122,0.216,0.2161,0.2171,0.2174,0.2176,0.2175,0.2128,0.2169,0.2169,0.2169,0.2169,0.2169,0,0.1613,0.1643,0.1682,0.1735,0.1769,0.178,0.1823,0.1851,0.1893,0.1932,0.197,0.2023,0.2068,0.2109,0.2157,0.2179,0.2188,0.219,0.219,0.2196,0.2171,0.2161,0.2183,0.2183,0.2183,0.2183,0.2183,0.2183,0.1633,0.168,0.17,0.1763,0.1793,0.184,0.1863,0.1896,0.1927,0.1986,0.2023,0.2049,0.2089,0.214,0.2182,0.2192,0.2209,0.221,0.2223,0.2199,0.2197,0.2196,0.2186,0.2213,0.2213,0.2244,0.2244,0.2244]},{"header":{"parameterUnit":"m.s-1","parameterCategory":1,"la1":30.2991,"la2":30.254,"lo1":-89.0895,"lo2":-89.0444,"dy":0.0017,"dx":0.0017,"nx":28,"ny":28,"refTime":"2024-03-16T09:00:00:Z","depth":0,"parameterNumber":3,"parameterNumberName":"V-component_of_WINDS"},"data":[0,0,0,0,0,0,0,0,0,0,0,0,0,0,0,0,0,0,0,0,0,0,0,0,0,0,0,0,0,0,0,0,0,0,0,0,0,0,0,0,0,0,0,0,0,0,0,0,0,0,0,0,0,0,0,0,0,0,0.6935,0.6935,0,0.6934,0.6934,0.6934,0.6895,0.6894,0.6893,0.6892,0.6893,0.6894,0.6895,0,0,0,0,0,0,0,0,0,0,0,0,0,0.6907,0.6908,0.6935,0.6935,0.6935,0.6934,0.6934,0.6934,0.6895,0.6894,0.6893,0.6892,0.6893,0.6894,0.6895,0,0,0,0,0,0,0,0,0,0,0,0,0,0.6914,0.6908,0.6935,0.6916,0.6914,0.6934,0.6934,0.6934,0.6896,0.6894,0.6893,0.6891,0.6892,0.6894,0.6895,0.6934,0,0,0.6899,0.69,0,0,0,0,0,0,0,0,0.6914,0.6915,0.6919,0.6917,0.6915,0.6913,0.6924,0.6934,0.6896,0.6903,0.6892,0.689,0.6901,0.6902,0.6905,0.6934,0.6934,0.69,0.69,0.6901,0.6901,0,0,0,0,0,0,0,0.6913,0.6915,0.6935,0.6919,0.6917,0.6908,0.6907,0.6926,0.691,0.6902,0.6899,0.6899,0.69,0.6903,0.6904,0.6934,0.6899,0.6901,0.6902,0.6902,0.6996,0.6998,0,0,0,0,0,0,0.6915,0.6915,0.6935,0.6935,0.6911,0.691,0.6909,0.6915,0.691,0.6908,0.6901,0.6898,0.6902,0.6903,0.6904,0.695,0.6901,0.6902,0.6903,0.6995,0.6997,0.6998,0,0,0,0,0,0,0.6915,0.6917,0.6935,0.6924,0.6926,0.6912,0.6919,0.6916,0.692,0.6909,0.6906,0.6907,0.6901,0.6902,0.6927,0.695,0.6903,0.6904,0.6993,0.6995,0.6998,0.7043,0,0,0,0,0,0,0.6914,0.6917,0.6932,0.6925,0.6926,0.6957,0.6921,0.6917,0.6922,0.6918,0.6914,0.6912,0.69,0.6925,0.6928,0.6951,0.6905,0.6991,0.6994,0.6997,0.7039,0.7046,0.7053,0,0,0,0,0,0.6913,0.6945,0.6932,0.6935,0.6944,0.6959,0.696,0.6944,0.6924,0.6939,0.6932,0.6913,0.6947,0.6928,0.6931,0.6955,0.6989,0.6993,0.6997,0.7036,0.7045,0.7053,0,0,0,0,0,0,0.6955,0.6943,0.693,0.696,0.6961,0.6952,0.697,0.6953,0.696,0.6956,0.6937,0.6936,0.6964,0.6962,0.6941,0.6993,0.6965,0.6969,0.6993,0.7002,0.7008,0.7009,0.6907,0,0,0,0,0,0.6968,0.6981,0.6969,0.6997,0.6998,0.6984,0.699,0.6977,0.6978,0.6978,0.6973,0.6974,0.6985,0.6993,0.7003,0.7038,0.7038,0.7056,0.7063,0.7068,0.7073,0.7093,0.7101,0.7011,0.7011,0.701,0,0,0.6995,0.699,0.6999,0.7006,0.7005,0.7019,0.6985,0.7001,0.7012,0.6981,0.7004,0.7,0.7,0.7031,0.7044,0.703,0.7098,0.7073,0.7078,0.7079,0.7097,0.7106,0.7114,0.7013,0.7013,0.7012,0,0,0.7051,0.7048,0.7071,0.7071,0.7069,0.706,0.7065,0.7059,0.7055,0.7078,0.7055,0.7068,0.7087,0.7089,0.7092,0.7148,0.7131,0.7152,0.7188,0.7207,0.7214,0.7221,0.7242,0.725,0.7156,0.7156,0.7156,0,0.7085,0.7105,0.7085,0.7103,0.7107,0.7079,0.7103,0.7103,0.7106,0.7109,0.7093,0.7117,0.7115,0.7146,0.716,0.7163,0.7169,0.7153,0.7215,0.7221,0.7226,0.7247,0.7254,0.7159,0.7159,0.7158,0.7158,0,0.7147,0.7161,0.718,0.7182,0.7188,0.7209,0.7193,0.7202,0.7188,0.7181,0.7205,0.7201,0.721,0.7216,0.7204,0.7246,0.7237,0.7218,0.7189,0.7238,0.7257,0.7264,0.7163,0.7162,0.7161,0.716,0,0,0.7231,0.7221,0.7229,0.723,0.7226,0.7237,0.7257,0.7264,0.7273,0.7275,0.7292,0.7308,0.7291,0.7295,0.7282,0.7299,0.7345,0.7278,0.7277,0.7291,0.7392,0.7408,0.7417,0.7333,0.7334,0.7335,0.7393,0,0.7286,0.7319,0.7302,0.7337,0.735,0.7323,0.734,0.7341,0.7334,0.7345,0.7337,0.735,0.7325,0.7327,0.7343,0.7336,0.7365,0.7332,0.735,0.7351,0.7352,0.7427,0.7443,0.7498,0.74,0.7401,0.7402,0,0.7355,0.736,0.7396,0.739,0.7395,0.7411,0.7417,0.7427,0.7427,0.7421,0.7425,0.7408,0.7428,0.7399,0.7427,0.7404,0.741,0.7408,0.741,0.7413,0.7381,0.7433,0.7514,0.7523,0.7413,0.7412,0.7411,0,0.7415,0.743,0.7454,0.7455,0.7448,0.746,0.7458,0.7456,0.7462,0.7467,0.7471,0.7479,0.7484,0.7491,0.7477,0.7457,0.7507,0.7476,0.7504,0.7505,0.7517,0.7517,0.7603,0.7519,0.7519,0.7519,0.7518,0,0.7479,0.7503,0.748,0.7495,0.7521,0.7502,0.7528,0.7523,0.7522,0.7536,0.7513,0.7527,0.7507,0.7519,0.7509,0.7534,0.7536,0.7533,0.753,0.7536,0.7536,0.7541,0.7537,0.7521,0.752,0.752,0.7519,0,0.7551,0.7536,0.7561,0.7552,0.755,0.757,0.7563,0.7577,0.7568,0.7586,0.759,0.7576,0.759,0.7576,0.7589,0.7582,0.7616,0.7607,0.7616,0.7614,0.7643,0.7641,0.7736,0.7748,0.7655,0.7656,0.7657,0,0.7594,0.7611,0.7604,0.7611,0.761,0.7623,0.7628,0.7609,0.7617,0.7617,0.7632,0.7643,0.7651,0.7673,0.7666,0.7675,0.7667,0.77,0.7669,0.7674,0.767,0.767,0.7672,0.7707,0.7708,0.7709,0.7709,0,0.7672,0.7664,0.7672,0.7679,0.7686,0.769,0.7693,0.77,0.7681,0.769,0.7703,0.7709,0.7722,0.7734,0.7741,0.7739,0.7722,0.7719,0.7726,0.7733,0.7738,0.7738,0.7635,0.7717,0.7717,0.7716,0.7716,0.7715,0.7732,0.7746,0.7743,0.7754,0.7754,0.7756,0.7769,0.7762,0.7772,0.778,0.7768,0.7785,0.7784,0.7792,0.7793,0.7806,0.7792,0.7802,0.7805,0.7809,0.7814,0.7735,0.7807,0.7807,0.7806,0.7806,0.7806,0,0.781,0.7807,0.7816,0.782,0.7829,0.781,0.7811,0.782,0.7835,0.7835,0.7843,0.7859,0.787,0.7863,0.7872,0.7885,0.7877,0.7888,0.7888,0.7888,0.7824,0.7818,0.7894,0.7894,0.7894,0.7894,0.7894,0.7894,0.7852,0.7876,0.7867,0.7891,0.7888,0.7903,0.7906,0.7909,0.7909,0.7927,0.7936,0.793,0.7928,0.7938,0.7948,0.7945,0.7951,0.7965,0.796,0.7901,0.7893,0.7884,0.7878,0.7966,0.7966,0.8023,0.8024,0.8024]}]]